Collingwood, Ontario

6:13 AM EDT on July 21, 2017 (GMT -0400)
Collingwood

Weather History for CWCO - May, 2013

Change the Weather History Date:

Wednesday, May 1, 2013

  Actual Average (CYBN) Record (CYBN)
Temperature  
Mean Temperature 66 °F -  
Max Temperature 80 °F 60 °F 87 °F (2001)
Min Temperature 53 °F 38 °F 24 °F (2008)
Cooling Degree Days 2    
Growing Degree Days 16 (Base 50)    
Moisture  
Dew Point 51 °F    
Average Humidity 59    
Maximum Humidity 84    
Minimum Humidity 31    
Precipitation  
Precipitation 0.00 in - - ()
Sea Level Pressure  
Sea Level Pressure 30.20 in    
Wind  
Wind Speed 7 mph ()    
Max Wind Speed 12 mph    
Max Gust Speed 20 mph    
Averages and records for this station are not official NWS values.
T = Trace of Precipitation, MM = Missing Value Source: Averaged Metar Reports

Daily Weather History Graph

Daily Weather History Graph

Search for Another Location

Airport or City:

Trip Planner

Search our weather history database for the weather conditions in past years. The results will help you decide how hot, cold, wet, or windy it might be!

Date:

Astronomy

May. 01, 2013 Rise Set
Actual Time 6:11 AM EDT 8:25 PM EDT
Civil Twilight 5:39 AM EDT 8:57 PM EDT
Nautical Twilight 4:59 AM EDT 9:37 PM EDT
Astronomical Twilight 4:15 AM EDT 10:22 PM EDT
Moon 1:34 AM EDT (5/1) 11:47 AM EDT (5/1)
Length of Visible Light 15h 18m
Length of Day
14h 14m
Waning Gibbous, 59% of the Moon is Illuminated
May 1
Waning Gibbous
May 2
Last Quarter
May 9
New
May 18
First Quarter
May 25
Full

Hourly Weather History & Observations

Time (EDT) Temp. Dew Point Humidity Pressure Visibility Wind Dir Wind Speed Gust Speed Precip Events Conditions
12:00 AM 59.0 °F 51.6 °F 76% 30.09 in - ESE 3.5 mph - N/A   Unknown
1:00 AM 57.9 °F 51.3 °F 78% 30.09 in - SE 9.2 mph - N/A   Unknown
2:00 AM 58 °F 51 °F 70% 30.10 in - SE 9.2 mph - -  
2:00 AM 57.6 °F 50.9 °F 78% 30.10 in - SE 9.2 mph - N/A   Unknown
3:00 AM 53.1 °F 48.2 °F 84% 30.12 in - ENE 3.5 mph - N/A   Unknown
4:00 AM 55.4 °F 49.8 °F 81% 30.13 in - SE 6.9 mph - N/A   Unknown
5:00 AM 55.2 °F 50.0 °F 83% 30.15 in - SE 5.8 mph - N/A   Unknown
6:00 AM 55.2 °F 49.8 °F 82% 30.18 in - SSE 4.6 mph - N/A   Unknown
7:00 AM 55.4 °F 49.8 °F 81% 30.20 in - SE 10.4 mph 18.4 mph N/A   Unknown
8:00 AM 58 °F 51 °F 70% 30.22 in - SSE 9.2 mph - -  
8:00 AM 58.3 °F 50.7 °F 76% 30.22 in - SSE 9.2 mph - N/A   Unknown
9:00 AM 63.5 °F 52.0 °F 66% 30.22 in - South 9.2 mph - N/A   Unknown
10:00 AM 69.6 °F 52.7 °F 55% 30.23 in - South 8.1 mph - N/A   Unknown
11:00 AM 72.3 °F 53.4 °F 51% 30.22 in - South 10.4 mph - N/A   Unknown
12:00 PM 74.5 °F 52.9 °F 47% 30.23 in - SSE 11.5 mph - N/A   Unknown
1:00 PM 76.1 °F 53.2 °F 45% 30.23 in - South 10.4 mph 18.4 mph N/A   Unknown
2:00 PM 78 °F 53 °F 31% 30.23 in - South 5.8 mph - -  
2:00 PM 77.9 °F 53.2 °F 42% 30.23 in - South 5.8 mph - N/A   Unknown
3:00 PM 78.4 °F 51.1 °F 38% 30.22 in - South 8.1 mph - N/A   Unknown
4:00 PM 78.6 °F 51.3 °F 38% 30.22 in - SE 10.4 mph - N/A   Unknown
5:00 PM 78.4 °F 52.2 °F 40% 30.22 in - SE 10.4 mph - N/A   Unknown
6:00 PM 77.2 °F 52.7 °F 42% 30.22 in - SE 11.5 mph 19.6 mph N/A   Unknown
7:00 PM 75.4 °F 50.5 °F 42% 30.23 in - SSE 11.5 mph - N/A   Unknown
8:00 PM 73 °F 52 °F 37% 30.25 in - SE 9.2 mph - -  
8:00 PM 72.7 °F 52.0 °F 48% 30.25 in - SE 9.2 mph - N/A   Unknown
9:00 PM 69.4 °F 52.2 °F 54% 30.26 in - SE 6.9 mph - N/A   Unknown
10:00 PM 66.7 °F 52.0 °F 59% 30.27 in - SSE 8.1 mph - N/A   Unknown
11:00 PM 64.0 °F 51.1 °F 63% 30.27 in - SSE 6.9 mph - N/A   Unknown